Time,TemperatureF,DewpointF,PressureIn,WindDirection,WindDirectionDegrees,WindSpeedMPH,WindSpeedGustMPH,Humidity,HourlyPrecipIn,Conditions,Clouds,dailyrainin,SolarRadiationWatts/m^2,SoftwareType,DateUTC
2013-04-12 00:03:00,27.0,25.0,-100.00,ENE,77,12.0,27.0,91,0.00,,,0.00,0.000000,,2013-04-12 05:03:00,
2013-04-12 00:12:00,27.0,25.0,-100.00,ENE,75,10.0,21.0,93,0.00,,,0.00,0.000000,,2013-04-12 05:12:00,
2013-04-12 00:32:00,27.0,25.0,-100.00,ENE,75,10.0,21.0,93,0.00,,,0.00,0.000000,,2013-04-12 05:32:00,
2013-04-12 00:42:00,27.0,25.0,-100.00,ENE,75,10.0,21.0,93,0.00,,,0.00,0.000000,,2013-04-12 05:42:00,
2013-04-12 00:52:00,27.0,25.0,-100.00,ENE,75,10.0,21.0,93,0.00,,,0.00,0.000000,,2013-04-12 05:52:00,
2013-04-12 01:02:00,27.0,25.0,-100.00,ENE,75,10.0,21.0,93,0.00,,,0.00,0.000000,,2013-04-12 06:02:00,
2013-04-12 01:32:00,27.0,25.0,-100.00,East,80,10.0,20.0,93,0.00,,,0.00,0.000000,,2013-04-12 06:32:00,
2013-04-12 01:42:00,27.0,25.0,-100.00,East,80,10.0,20.0,93,0.00,,,0.00,0.000000,,2013-04-12 06:42:00,
2013-04-12 01:52:00,27.0,25.0,-100.00,East,80,10.0,20.0,93,0.00,,,0.00,0.000000,,2013-04-12 06:52:00,
2013-04-12 02:01:00,27.0,25.0,-100.00,East,80,10.0,20.0,93,0.00,,,0.00,0.000000,,2013-04-12 07:01:00,
2013-04-12 02:11:00,27.0,25.0,-100.00,East,80,10.0,20.0,93,0.00,,,0.00,0.000000,,2013-04-12 07:11:00,
2013-04-12 02:12:00,26.0,24.0,-100.00,East,79,9.0,17.0,93,0.00,,,0.00,0.000000,,2013-04-12 07:12:00,
2013-04-12 02:42:00,26.0,24.0,-100.00,East,79,9.0,17.0,93,0.00,,,0.00,0.000000,,2013-04-12 07:42:00,
2013-04-12 02:52:00,26.0,24.0,-100.00,East,79,9.0,17.0,93,0.00,,,0.00,0.000000,,2013-04-12 07:52:00,
2013-04-12 03:03:00,26.0,24.0,-100.00,East,79,9.0,17.0,93,0.00,,,0.00,0.000000,,2013-04-12 08:03:00,
2013-04-12 03:12:00,26.0,24.0,-100.00,ENE,75,9.0,15.0,93,0.00,,,0.00,0.000000,,2013-04-12 08:12:00,
2013-04-12 03:32:00,26.0,24.0,-100.00,ENE,75,9.0,15.0,93,0.00,,,0.00,0.000000,,2013-04-12 08:32:00,
2013-04-12 03:43:00,26.0,24.0,-100.00,ENE,75,9.0,15.0,93,0.00,,,0.00,0.000000,,2013-04-12 08:43:00,
2013-04-12 03:52:00,26.0,24.0,-100.00,ENE,75,9.0,15.0,93,0.00,,,0.00,0.000000,,2013-04-12 08:52:00,
2013-04-12 04:02:00,26.0,24.0,-100.00,ENE,75,9.0,15.0,93,0.00,,,0.00,0.000000,,2013-04-12 09:02:00,
2013-04-12 04:12:00,26.0,24.0,-100.00,ENE,72,6.0,14.0,93,0.00,,,0.00,0.000000,,2013-04-12 09:12:00,
2013-04-12 04:33:00,26.0,24.0,-100.00,ENE,72,6.0,14.0,93,0.00,,,0.00,0.000000,,2013-04-12 09:33:00,
2013-04-12 04:44:00,26.0,24.0,-100.00,ENE,72,6.0,14.0,93,0.00,,,0.00,0.000000,,2013-04-12 09:44:00,
2013-04-12 04:53:00,26.0,24.0,-100.00,ENE,72,6.0,14.0,93,0.00,,,0.00,0.000000,,2013-04-12 09:53:00,
2013-04-12 05:03:00,26.0,24.0,-100.00,ENE,72,6.0,14.0,93,0.00,,,0.00,0.000000,,2013-04-12 10:03:00,
2013-04-12 05:12:00,26.0,24.0,-100.00,NE,54,8.0,14.0,93,0.00,,,0.00,0.000000,,2013-04-12 10:12:00,
2013-04-12 05:42:00,26.0,24.0,-100.00,NE,54,8.0,14.0,93,0.00,,,0.00,0.000000,,2013-04-12 10:42:00,
2013-04-12 05:53:00,26.0,24.0,-100.00,NE,54,8.0,14.0,93,0.00,,,0.00,0.000000,,2013-04-12 10:53:00,
2013-04-12 06:02:00,26.0,24.0,-100.00,NE,54,8.0,14.0,93,0.00,,,0.00,0.000000,,2013-04-12 11:02:00,
2013-04-12 06:12:00,25.0,23.0,-100.00,NE,55,9.0,16.0,93,0.00,,,0.00,0.000000,,2013-04-12 11:12:00,
2013-04-12 06:43:00,25.0,23.0,-100.00,NE,55,9.0,16.0,93,0.00,,,0.00,0.000000,,2013-04-12 11:43:00,
2013-04-12 06:52:00,25.0,23.0,-100.00,NE,55,9.0,16.0,93,0.00,,,0.00,0.000000,,2013-04-12 11:52:00,
2013-04-12 07:02:00,25.0,23.0,-100.00,NE,55,9.0,16.0,93,0.00,,,0.00,0.000000,,2013-04-12 12:02:00,
2013-04-12 07:12:00,25.0,23.0,-100.00,NE,53,9.0,18.0,92,0.00,,,0.00,10.000000,,2013-04-12 12:12:00,
2013-04-12 07:33:00,25.0,23.0,-100.00,NE,53,9.0,18.0,92,0.00,,,0.00,10.000000,,2013-04-12 12:33:00,
2013-04-12 07:43:00,25.0,23.0,-100.00,NE,53,9.0,18.0,92,0.00,,,0.00,10.000000,,2013-04-12 12:43:00,
2013-04-12 07:53:00,25.0,23.0,-100.00,NE,53,9.0,18.0,92,0.00,,,0.00,10.000000,,2013-04-12 12:53:00,
2013-04-12 08:03:00,25.0,23.0,-100.00,NE,53,9.0,18.0,92,0.00,,,0.00,10.000000,,2013-04-12 13:03:00,
2013-04-12 08:12:00,26.0,24.0,-100.00,NE,50,8.0,16.0,92,0.00,,,0.00,51.000000,,2013-04-12 13:12:00,
2013-04-12 08:32:00,26.0,24.0,-100.00,NE,50,8.0,16.0,92,0.00,,,0.00,51.000000,,2013-04-12 13:32:00,
2013-04-12 08:43:00,26.0,24.0,-100.00,NE,50,8.0,16.0,92,0.00,,,0.00,51.000000,,2013-04-12 13:43:00,
2013-04-12 08:53:00,26.0,24.0,-100.00,NE,50,8.0,16.0,92,0.00,,,0.00,51.000000,,2013-04-12 13:53:00,
2013-04-12 09:03:00,26.0,24.0,-100.00,NE,50,8.0,16.0,92,0.00,,,0.00,51.000000,,2013-04-12 14:03:00,
2013-04-12 09:12:00,26.0,24.0,-100.00,NE,54,8.0,16.0,91,0.00,,,0.00,100.000000,,2013-04-12 14:12:00,
2013-04-12 09:33:00,26.0,24.0,-100.00,NE,54,8.0,16.0,91,0.00,,,0.00,100.000000,,2013-04-12 14:33:00,
2013-04-12 09:43:00,26.0,24.0,-100.00,NE,54,8.0,16.0,91,0.00,,,0.00,100.000000,,2013-04-12 14:43:00,
2013-04-12 09:53:00,26.0,24.0,-100.00,NE,54,8.0,16.0,91,0.00,,,0.00,100.000000,,2013-04-12 14:53:00,
2013-04-12 10:02:00,26.0,24.0,-100.00,NE,54,8.0,16.0,91,0.00,,,0.00,100.000000,,2013-04-12 15:02:00,
2013-04-12 10:12:00,27.0,24.0,-100.00,NE,55,9.0,18.0,89,0.00,,,-99.99,156.000000,,2013-04-12 15:12:00,
2013-04-12 10:43:00,27.0,24.0,-100.00,NE,55,9.0,18.0,89,0.00,,,-99.99,156.000000,,2013-04-12 15:43:00,
2013-04-12 10:53:00,27.0,24.0,-100.00,NE,55,9.0,18.0,89,0.00,,,-99.99,156.000000,,2013-04-12 15:53:00,
2013-04-12 11:03:00,27.0,24.0,-100.00,NE,55,9.0,18.0,89,0.00,,,-99.99,156.000000,,2013-04-12 16:03:00,
2013-04-12 11:12:00,28.0,25.0,-100.00,NE,56,9.0,17.0,87,0.00,,,-99.99,255.000000,,2013-04-12 16:12:00,
2013-04-12 11:34:00,28.0,25.0,-100.00,NE,56,9.0,17.0,87,0.00,,,-99.99,255.000000,,2013-04-12 16:34:00,
2013-04-12 11:43:00,28.0,25.0,-100.00,NE,56,9.0,17.0,87,0.00,,,-99.99,255.000000,,2013-04-12 16:43:00,
2013-04-12 11:53:00,28.0,25.0,-100.00,NE,56,9.0,17.0,87,0.00,,,-99.99,255.000000,,2013-04-12 16:53:00,
2013-04-12 12:03:00,28.0,25.0,-100.00,NE,56,9.0,17.0,87,0.00,,,-99.99,255.000000,,2013-04-12 17:03:00,
2013-04-12 12:47:00,30.0,26.0,-100.00,NE,47,8.0,16.0,86,0.00,,,0.00,352.000000,,2013-04-12 17:47:00,
2013-04-12 13:06:00,30.0,26.0,-100.00,NE,47,8.0,16.0,86,0.00,,,0.00,352.000000,,2013-04-12 18:06:00,
2013-04-12 13:12:00,32.0,28.0,-100.00,NE,45,7.0,14.0,85,0.00,,,0.00,404.000000,,2013-04-12 18:12:00,
2013-04-12 14:12:00,31.0,27.0,-100.00,NE,51,5.0,14.0,85,0.00,,,0.00,327.000000,,2013-04-12 19:12:00,
2013-04-12 14:43:00,31.0,27.0,-100.00,NE,51,5.0,14.0,85,0.00,,,0.00,327.000000,,2013-04-12 19:43:00,
2013-04-12 14:53:00,31.0,27.0,-100.00,NE,51,5.0,14.0,85,0.00,,,0.00,327.000000,,2013-04-12 19:53:00,
2013-04-12 15:02:00,31.0,27.0,-100.00,NE,51,5.0,14.0,85,0.00,,,0.00,327.000000,,2013-04-12 20:02:00,
2013-04-12 15:12:00,32.0,29.0,-100.00,NE,44,3.0,9.0,87,0.00,,,0.00,241.000000,,2013-04-12 20:12:00,
2013-04-12 15:43:00,32.0,29.0,-100.00,NE,44,3.0,9.0,87,0.00,,,0.00,241.000000,,2013-04-12 20:43:00,
2013-04-12 15:52:00,32.0,29.0,-100.00,NE,44,3.0,9.0,87,0.00,,,0.00,241.000000,,2013-04-12 20:52:00,
2013-04-12 16:02:00,32.0,29.0,-100.00,NE,44,3.0,9.0,87,0.00,,,0.00,241.000000,,2013-04-12 21:02:00,
2013-04-12 16:12:00,32.0,29.0,-100.00,NNE,30,4.0,9.0,87,0.00,,,0.00,241.000000,,2013-04-12 21:12:00,
2013-04-12 16:43:00,32.0,29.0,-100.00,NNE,30,4.0,9.0,87,0.00,,,0.00,241.000000,,2013-04-12 21:43:00,
2013-04-12 16:53:00,32.0,29.0,-100.00,NNE,30,4.0,9.0,87,0.00,,,0.00,241.000000,,2013-04-12 21:53:00,
2013-04-12 17:02:00,32.0,29.0,-100.00,NNE,30,4.0,9.0,87,0.00,,,0.00,241.000000,,2013-04-12 22:02:00,
2013-04-12 17:12:00,32.0,29.0,-100.00,NNE,33,4.0,8.0,90,0.00,,,0.00,164.000000,,2013-04-12 22:12:00,
2013-04-12 17:43:00,32.0,29.0,-100.00,NNE,33,4.0,8.0,90,0.00,,,0.00,164.000000,,2013-04-12 22:43:00,
2013-04-12 17:52:00,32.0,29.0,-100.00,NNE,33,4.0,8.0,90,0.00,,,0.00,164.000000,,2013-04-12 22:52:00,
2013-04-12 18:03:00,32.0,29.0,-100.00,NNE,33,4.0,8.0,90,0.00,,,0.00,164.000000,,2013-04-12 23:03:00,
2013-04-12 18:12:00,32.0,30.0,-100.00,NE,41,3.0,7.0,91,0.00,,,0.00,145.000000,,2013-04-12 23:12:00,
2013-04-12 18:32:00,32.0,30.0,-100.00,NE,41,3.0,7.0,91,0.00,,,0.00,145.000000,,2013-04-12 23:32:00,
2013-04-12 18:42:00,32.0,30.0,-100.00,NE,41,3.0,7.0,91,0.00,,,0.00,145.000000,,2013-04-12 23:42:00,
2013-04-12 18:52:00,32.0,30.0,-100.00,NE,41,3.0,7.0,91,0.00,,,0.00,145.000000,,2013-04-12 23:52:00,
2013-04-12 19:02:00,32.0,30.0,-100.00,NE,41,3.0,7.0,91,0.00,,,0.00,145.000000,,2013-04-13 00:02:00,
2013-04-12 20:12:00,30.0,28.0,-100.00,NW,318,0.0,3.0,94,-99.99,,,0.00,2.000000,,2013-04-13 01:12:00,
2013-04-12 20:33:00,30.0,28.0,-100.00,NW,318,0.0,3.0,94,-99.99,,,0.00,2.000000,,2013-04-13 01:33:00,
2013-04-12 20:43:00,30.0,28.0,-100.00,NW,318,0.0,3.0,94,-99.99,,,0.00,2.000000,,2013-04-13 01:43:00,
2013-04-12 20:52:00,30.0,28.0,-100.00,NW,318,0.0,3.0,94,-99.99,,,0.00,2.000000,,2013-04-13 01:52:00,
2013-04-12 21:02:00,30.0,28.0,-100.00,NW,318,0.0,3.0,94,-99.99,,,0.00,2.000000,,2013-04-13 02:02:00,
2013-04-12 21:12:00,28.0,27.0,-100.00,NW,323,0.0,2.0,95,0.00,,,0.00,0.000000,,2013-04-13 02:12:00,
2013-04-12 21:33:00,28.0,27.0,-100.00,NW,323,0.0,2.0,95,0.00,,,0.00,0.000000,,2013-04-13 02:33:00,
2013-04-12 21:43:00,28.0,27.0,-100.00,NW,323,0.0,2.0,95,0.00,,,0.00,0.000000,,2013-04-13 02:43:00,
2013-04-12 21:53:00,28.0,27.0,-100.00,NW,323,0.0,2.0,95,0.00,,,0.00,0.000000,,2013-04-13 02:53:00,
2013-04-12 22:02:00,28.0,27.0,-100.00,NW,323,0.0,2.0,95,0.00,,,0.00,0.000000,,2013-04-13 03:02:00,
2013-04-12 22:12:00,27.0,26.0,-100.00,NNW,328,0.0,2.0,95,0.00,,,0.00,0.000000,,2013-04-13 03:12:00,
2013-04-12 22:33:00,27.0,26.0,-100.00,NNW,328,0.0,2.0,95,0.00,,,0.00,0.000000,,2013-04-13 03:33:00,
2013-04-12 22:43:00,27.0,26.0,-100.00,NNW,328,0.0,2.0,95,0.00,,,0.00,0.000000,,2013-04-13 03:43:00,
2013-04-12 22:53:00,27.0,26.0,-100.00,NNW,328,0.0,2.0,95,0.00,,,0.00,0.000000,,2013-04-13 03:53:00,
2013-04-12 23:03:00,27.0,26.0,-100.00,NNW,328,0.0,2.0,95,0.00,,,0.00,0.000000,,2013-04-13 04:03:00,
2013-04-12 23:12:00,26.0,25.0,-100.00,NW,322,0.0,2.0,95,0.00,,,0.00,0.000000,,2013-04-13 04:12:00,
2013-04-12 23:33:00,26.0,25.0,-100.00,NW,322,0.0,2.0,95,0.00,,,0.00,0.000000,,2013-04-13 04:33:00,
2013-04-12 23:42:00,26.0,25.0,-100.00,NW,322,0.0,2.0,95,0.00,,,0.00,0.000000,,2013-04-13 04:42:00,
2013-04-12 23:53:00,26.0,25.0,-100.00,NW,322,0.0,2.0,95,0.00,,,0.00,0.000000,,2013-04-13 04:53:00,